Location: Unspecified
(43.4680°N, 87.1740°E)
Time: 21:18:19
(UTC+00:00)

CZ-2D R/B - Pass Details

Date: 25 July 2021
Orbit: 553 x 637 km, 97.9° (Epoch: 20 September)

Event Time Altitude Azimuth Distance (km) Brightness Sun altitude
Rises 20:30:33 0° 34° (NE) 2,753 8.5 -20.1°
Reaches altitude 10° 20:33:44 10° 62° (ENE) 1,862 6.9 -19.8°
Maximum altitude 20:35:42 13° 91° (E) 1,665 6.2 -19.6°
Drops below altitude 10° 20:37:40 10° 121° (ESE) 1,873 6.1 -19.4°
Enters shadow 20:39:44 - 141° (SE) 2,409 6.4 -19.2°
